Regional Weather Roundup
Issued by NWS

Home | Current Version | Previous Version | Text Only | Print | Product List | Glossary Off
Versions: 1 2 3 4 5 6 7 8 9 10 11 12 13 14 15 16 17 18 19 20 21 22 23 24 25 26 27 28 29 30 31 32 33 34 35 36 37 38 39 40 41 42 43 44 45 46 47 48 49 50

985
ASUS44 KMEG 212310
RWRTN
TENNESSEE HOURLY STATE WEATHER ROUNDUP
NATIONAL WEATHER SERVICE MEMPHIS TN
600 PM CDT MON AUG 21 2017

TNZ002-004-019-021-049-052-054-088>092-220000-
WEST TENNESSEE

CITY           SKY/WX    TMP DP  RH WIND       PRES   REMARKS
MEMPHIS INTL   CLOUDY    89  75  63 SW5       30.06F HX  99
NWS MEMPHIS      N/A     92 N/A N/A MISG        N/A
JACKSON        SUNNY     91  76  61 SW5       30.06S HX 103
DYERSBURG      LGT RAIN  88  78  72 CALM      30.06  HX 101
SOMERVILLE     SUNNY     90  77  66 CALM      30.06S HX 102
COVINGTON      MOSUNNY   90  79  70 S6        30.05S HX 105
UNION CITY     SUNNY     91  75  59 S6        30.04R HX 102
BOLIVAR        SUNNY     88  75  66 CALM      30.07R HX  97
PARIS          MOSUNNY   90  75  62 VRB3      30.06R HX 100
HUNTINGDON     SUNNY     91  75  59 S6        30.05S HX 102
LEXINGTON      SUNNY     91  73  55 CALM      30.07S HX 100
SELMER         SUNNY     90  75  62 CALM      30.07S HX 100
SAVANNAH       PTSUNNY   91  73  55 E3        30.06R HX 100
$$

TNZ008-025-027-028-033-062-065-066-220000-
NORTH MIDDLE TENNESSEE

CITY           SKY/WX    TMP DP  RH WIND       PRES   REMARKS
NASHVILLE      MOSUNNY   92  65  40 S7        30.09F HX  94
PORTLAND       MOSUNNY   88  70  55 SE5       30.09S HX  92
CLARKSVILLE    SUNNY     89  71  55 SW5       30.08R HX  95
SMYRNA         MOSUNNY   91  69  48 S3        30.09F HX  96
COOKEVILLE     SUNNY     88  68  51 CALM      30.13R HX  91
GALLATIN       MOSUNNY   91  70  49 S5        30.11S HX  97
CROSSVILLE     SUNNY     83  67  58 CALM      30.20S
$$

TNZ061-075-076-078-094-096-097-220000-
SOUTH MIDDLE TENNESSEE

CITY           SKY/WX    TMP DP  RH WIND       PRES   REMARKS
FAYETTEVILLE   SUNNY     88  66  48 S5        30.12R HX  90
TULLAHOMA      SUNNY     88  64  45 S3        30.15R
WINCHESTER     SUNNY     88  68  51 SE5       30.14R HX  91
MCMINNVILLE    SUNNY     91  70  49 S3G122    30.14R HX  97
COLUMBIA       SUNNY     90  70  51 SE5       30.07S HX  95
SHELBYVILLE    SUNNY     88  68  51 SE3       30.11S HX  91
$$

TNZ017-018-042-046-047-220000-
NORTHEAST TENNESSEE

CITY           SKY/WX    TMP DP  RH WIND       PRES   REMARKS
TRI CITIES     MOSUNNY   87  68  52 CALM      30.18S HX  90
ELIZABETHTON   SUNNY     84  68  58 CALM      30.18S
$$

TNZ012-013-036-069-073-074-220000-
CENTRAL EAST TENNESSEE

CITY           SKY/WX    TMP DP  RH WIND       PRES   REMARKS
KNOXVILLE      MOSUNNY   89  66  46 NW5       30.13S HX  91
OAK RIDGE      SUNNY     89  67  47 E3        30.15S HX  92
DOWNTOWN KNOXV SUNNY     82  73  74 CALM      30.12S
GATLINBURG     MOSUNNY   90  64  43 VRB3      30.13S HX  91
MORRISTOWN     SUNNY     86  66  51 N3        30.15S
JACKSBORO      SUNNY     86  68  54 CALM      30.18S
$$

TNZ083-085-099-220000-
SOUTHEAST TENNESSEE

CITY           SKY/WX    TMP DP  RH WIND       PRES   REMARKS
CHATTANOOGA    MOSUNNY   89  67  47 SE5       30.12S HX  92
DAYTON         CLEAR     90  72  55 CALM      30.11S HX  96
$$

SKY/WX REPORTED AS FAIR MEANS FEW OR NO CLOUDS BELOW
12 THOUSAND FEET.





USA.gov is the U.S. government's official web portal to all federal, state and local government web resources and services.